Regional Weather Roundup
Issued by NWS

Home | Current Version | Previous Version | Graphics & Text | Print | Product List | Glossary On
Versions: 1 2 3 4 5 6 7 8 9 10 11 12 13 14 15 16 17 18 19 20 21 22 23 24 25 26 27 28 29 30 31 32 33 34 35 36 37 38 39 40 41 42 43 44 45 46 47 48 49 50
000
ASUS43 KLOT 272303
RWRIL

ILLINOIS REGIONAL WEATHER ROUNDUP
NATIONAL WEATHER SERVICE CHICAGO/ROMEOVILLE IL
600 PM CDT WED JUL 27 2016

NOTE: "FAIR" INDICATES FEW OR NO CLOUDS BELOW 12,000 FEET WITH NO
SIGNIFICANT WEATHER AND/OR OBSTRUCTIONS TO VISIBILITY.

* THESE STATIONS ARE NOT UNDER NWS QUALITY CONTROL. THEY ALSO MAY NOT
  REPORT WEATHER SUCH AS PRECIPITATION OR FOG.

ILZ001-002-007-009-015-016-024-280000-
NORTHWEST ILLINOIS

CITY           SKY/WX    TMP DP  RH WIND       PRES   REMARKS
MOLINE         MOSUNNY   86  69  56 SE6       29.90F HX  90
STERLING*      MOSUNNY   83  70  64 S3        29.92  HX  87
SAVANNA*       MOSUNNY   85  70  60 S5        29.91F HX  89
$$

ILZ003-004-008-010-011-017-018-280000-
NORTH CENTRAL ILLINOIS

CITY           SKY/WX    TMP DP  RH WIND       PRES   REMARKS
ROCKFORD       MOSUNNY   85  67  54 S6        29.93F HX  87
FREEPORT*      SUNNY     83  69  62 SE3       29.95F HX  86
ROCHELLE*      MOSUNNY   82  71  69 CALM      29.94F HX  87
DE KALB*       SUNNY     82  70  66 S6        29.95F HX  85
$$

ILZ005-006-012>014-019>023-280000-
NORTHEAST ILLINOIS

CITY           SKY/WX    TMP DP  RH WIND       PRES   REMARKS
CHICAGO-OHARE  PTSUNNY   85  63  47 E12       29.92F HX  86
CHICAGO-MIDWAY MOSUNNY   87  63  44 W8        29.92F HX  88
AURORA         SUNNY     85  69  58 SW7       29.94F HX  89
LANSING*       SUNNY     85  64  49 SW7       29.94S HX  86
WAUKEGAN       MOSUNNY   82  68  62 SE8       29.93F HX  85
DUPAGE AIRPORT SUNNY     85  66  53 SW7       29.93F HX  87
KANKAKEE*      SUNNY     87  67  50 CALM      29.95S HX  89
WHEELING       MOSUNNY   84  63  49 E6        29.94F HX  85
MORRIS*        SUNNY     84  68  58 CALM      29.93F HX  88
NORTHERLY ISL    N/A     79  71  76 NE6         N/A  HX  82
$$

LMZ740>746-280000-
SOUTHERN LAKE MICHIGAN

STATION/POSITION SKY/WX   TEMP    WIND        PRES    VSBY  WAVE
                          AIR SEA DIR/SP/G                  HT/PER
                          (F)     (DEG/KT/KT) (MB)    (MI)  (FT/S)
SOUTHERN BUOY              77 78   40/  6/ 10 1013.4F         0
WILMETTE HARBOR            77 72  120/  6/  6   N/A           1
HARRISON CRIB              80      80/ 11/ 11   N/A
BURNHAM HARBOR             79      60/  5/  7   N/A
CALUMET HARBOR             81      80/  8/ 12 1013.2F
BURNS HARBOR               81      80/ 10/ 12 1014.2F
MICHIGAN CITY              79      30/  7/  8   N/A
MICHIGAN CITY 6N           79 78   60/  8/  8   N/A           0
ST. JOSEPH                 78 80   20/  8/  8 1013.8F         0
$$

ILZ025>027-034>036-040-047-049-050-058-095>099-280000-
WEST-CENTRAL ILLINOIS

CITY           SKY/WX    TMP DP  RH WIND       PRES   REMARKS
QUINCY         SUNNY     89  72  56 SW3       29.90F HX  96
GALESBURG*     SUNNY     84  69  58 CALM      29.92F HX  88
MACOMB*        MOSUNNY   84  74  70 E3        29.94F HX  91
JACKSONVILLE*  MOSUNNY   84  74  71 E5        29.91F HX  91
PITTSFIELD*    MOSUNNY   87  78  76 NE5       29.91F HX 100
$$

ILZ028>032-037-038-041>044-048-051>054-059>061-280000-
CENTRAL ILLINOIS

CITY           SKY/WX    TMP DP  RH WIND       PRES   REMARKS
PONTIAC        PTSUNNY   83  73  71 S3        29.95F HAZE    HX  89
BLOOMINGTON    MOSUNNY   83  71  67 SE8       29.95F HX  87
DECATUR        MOSUNNY   84  72  67 SE6       29.93F HX  89
PEORIA         MOSUNNY   85  71  63 S5        29.92F HX  90
LACON*         PTSUNNY   84  69  59 SE6       29.92F HX  87
LINCOLN*       MOSUNNY   85  74  69 SE3       29.92F HX  93
SPRINGFIELD    SUNNY     87  71  58 CALM      29.92F HX  93
TAYLORVILLE    MOSUNNY   82  74  75 MISG      29.92F HX  88
$$

ILZ033-039-045-046-055>057-062-063-280000-
EAST-CENTRAL ILLINOIS

CITY           SKY/WX    TMP DP  RH WIND       PRES   REMARKS
CHAMPAIGN      SUNNY     83  71  67 SE5       29.94F HX  87
MATTOON        MOSUNNY   83  72  69 E6        29.92F HX  88
PARIS*         CLOUDY    84  72  68 CALM      29.94F HX  89
$$

ILZ079-100>102-280000-
SOUTHWEST ILLINOIS

CITY           SKY/WX    TMP DP  RH WIND       PRES   REMARKS
ALTON          PTSUNNY   84  75  74 SE7       29.90F HX  92
BELLEVILLE     CLOUDY    84  76  78 CALM      29.89F HX  93
CAHOKIA*       PTSUNNY   83  75  77 S6        29.89F HX  90
SPARTA*        CLOUDY    84  77  79 CALM      29.92S HX  94
$$

ILZ064>066-069>071-074>076-080>082-084>086-088>090-092>094-280000-
SOUTH-CENTRAL ILLINOIS

CITY           SKY/WX    TMP DP  RH WIND       PRES   REMARKS
CARBONDALE     MOSUNNY   89  76  65 N12       29.90S HX 100
CAIRO*         CLOUDY    81  75  82 NE3       29.89S THUNDER HX  87
EFFINGHAM*     MOSUNNY   84  76  77 E3        29.93F HX  92
MARION         PTSUNNY   84  77  79 E7        29.91S HX  94
MT. VERNON     CLOUDY    84  73  70 MISG      29.90F HX  91
CENTRALIA*     CLOUDY    85  78  81 CALM      29.90F HX  97
SALEM*         PTSUNNY   86  76  72 CALM      29.91F HX  95
METROPOLIS*    CLOUDY    78  75  90 N7        29.92R HX  81
$$

ILZ067-068-072-073-078-083-087-091-280000-
SOUTHEAST ILLINOIS

CITY           SKY/WX    TMP DP  RH WIND       PRES   REMARKS
LAWRENCEVILLE  CLOUDY    87  73  62 E5        29.91F HX  94
FLORA*         MOSUNNY   86  76  72 NE3       29.91F HX  96
FAIRFIELD*     CLOUDY    79  73  83 CALM      29.90F HX  82
HARRISBURG*    CLOUDY    80  74  83 NE3       29.91F HX  84
ROBINSON*      SUNNY     85  73  67 E3        29.92F HX  92
CARMI*         CLOUDY    80  78  94 N6        29.90F HX  85
$$

ABBREVIATIONS USED IN REMARKS
   TC - TEMPERATURE IN CELSIUS
  WCI - WIND CHILL INDEX
   HX - HEAT INDEX
  VSB - VISIBILITY
$$





USA.gov is the U.S. government's official web portal to all federal, state and local government web resources and services.